QPF
0.01 0.01 0.02 0.01 0.00 0.01 0.02 0.03 0.02 0.01 0.01 0.01 0.01 0.01 0.01 0.01 0.01 0.01 0.01 0.01 0.01 0.01 0.01 0.01 0.01 0.01 0.01 0.01 0.01 0.02 0.02 0.01 0.01 0.00 0.01 0.02 0.04 0.07 0.07 0.06 0.04 0.03 0.02 0.01
0.01 0.01 0.01 0.01 0.01 0.01 0.01 0.02 0.03 0.02 0.01 0.01 0.01 0.01 0.01 0.01 0.01 0.01 0.01 0.01 0.01 0.01 0.01 0.01 0.01 0.01 0.01 0.01 0.01 0.01 0.01 0.01 0.01 0.01 0.01 0.02 0.03 0.06 0.07 0.06 0.06 0.04 0.02 0.01
0.00 0.01 0.01 0.01 0.01 0.01 0.01 0.01 0.02 0.02 0.02 0.02 0.01 0.01 0.00 0.00 0.01 0.01 0.01 0.01 0.01 0.01 0.01 0.01 0.02 0.02 0.01 0.01 0.01 0.01 0.02 0.02 0.02 0.01 0.01 0.02 0.02 0.04 0.06 0.06 0.06 0.05 0.04 0.03
0.00 0.00 0.01 0.00 0.00 0.00 0.00 0.00 0.01 0.01 0.02 0.02 0.02 0.01 0.00 0.00 0.00 0.01 0.01 0.01 0.00 0.00 0.01 0.01 0.02 0.02 0.01 0.01 0.01 0.01 0.01 0.02 0.02 0.02 0.02 0.02 0.02 0.03 0.05 0.07 0.06 0.06 0.05 0.04
0.00 0.00 0.01 0.01 0.01 0.01 0.01 0.01 0.00 0.01 0.01 0.01 0.02 0.01 0.01 0.00 0.00 0.00 0.01 0.00 0.00 0.00 0.01 0.01 0.01 0.02 0.01 0.01 0.01 0.02 0.02 0.02 0.02 0.01 0.01 0.02 0.02 0.03 0.05 0.06 0.06 0.06 0.06 0.05
0.01 0.01 0.01 0.01 0.00 0.00 0.00 0.01 0.00 0.00 0.00 0.01 0.01 0.01 0.01 0.01 0.01 0.01 0.01 0.01 0.00 0.00 0.00 0.01 0.01 0.01 0.01 0.01 0.01 0.01 0.02 0.02 0.02 0.02 0.02 0.02 0.03 0.04 0.04 0.04 0.04 0.05 0.05 0.05
0.00 0.00 0.00 0.00 0.00 0.00 0.00 0.00 0.00 0.00 0.00 0.01 0.02 0.02 0.02 0.01 0.01 0.01 0.01 0.01 0.01 0.01 0.01 0.01 0.01 0.01 0.01 0.01 0.01 0.01 0.01 0.01 0.01 0.01 0.02 0.03 0.03 0.04 0.04 0.04 0.04 0.04 0.04 0.05
0.01 0.00 0.00 0.00 0.00 0.01 0.00 0.00 0.00 0.00 0.00 0.01 0.01 0.01 0.01 0.01 0.00 0.01 0.01 0.01 0.02 0.01 0.01 0.00 0.01 0.01 0.01 0.01 0.02 0.02 0.01 0.01 0.01 0.01 0.01 0.02 0.02 0.02 0.03 0.03 0.03 0.03 0.04 0.04
0.01 0.01 0.01 0.00 0.00 0.00 0.00 0.00 0.00 0.00 0.01 0.01 0.00 0.00 0.00 0.00 0.00 0.00 0.01 0.01 0.01 0.01 0.01 0.01 0.00 0.01 0.01 0.02 0.02 0.02 0.02 0.01 0.01 0.02 0.01 0.01 0.01 0.01 0.01 0.02 0.02 0.02 0.02 0.02
0.01 0.01 0.01 0.00 0.00 0.00 0.00 0.00 0.01 0.01 0.01 0.01 0.01 0.01 0.00 0.00 0.00 0.00 0.00 0.01 0.01 0.01 0.01 0.01 0.01 0.01 0.01 0.01 0.01 0.01 0.01 0.01 0.02 0.02 0.01 0.00 0.00 0.00 0.01 0.01 0.01 0.01 0.01 0.01
0.01 0.00 0.00 0.00 0.00 0.00 0.00 0.01 0.01 0.01 0.01 0.01 0.02 0.02 0.01 0.01 0.01 0.00 0.00 0.00 0.01 0.01 0.01 0.02 0.02 0.01 0.01 0.01 0.01 0.02 0.02 0.01 0.02 0.02 0.01 0.01 0.01 0.01 0.01 0.01 0.02 0.01 0.01 0.01
0.00 0.00 0.00 0.00 0.00 0.00 0.00 0.01 0.02 0.02 0.01 0.01 0.01 0.01 0.02 0.02 0.01 0.01 0.01 0.01 0.02 0.03 0.03 0.04 0.03 0.01 0.01 0.01 0.01 0.01 0.01 0.01 0.01 0.01 0.02 0.02 0.02 0.02 0.02 0.03 0.03 0.02 0.02 0.02
0.00 0.00 0.00 0.00 0.00 0.00 0.00 0.01 0.02 0.02 0.01 0.01 0.01 0.01 0.01 0.00 0.00 0.00 0.01 0.01 0.02 0.03 0.02 0.02 0.01 0.01 0.01 0.01 0.01 0.00 0.00 0.01 0.01 0.01 0.01 0.02 0.02 0.03 0.03 0.02 0.02 0.02 0.03 0.03
0.00 0.00 0.00 0.00 0.00 0.00 0.00 0.01 0.01 0.01 0.01 0.00 0.00 0.00 0.00 0.00 0.00 0.00 0.01 0.01 0.01 0.01 0.01 0.01 0.01 0.01 0.00 0.00 0.00 0.00 0.00 0.00 0.01 0.01 0.01 0.02 0.03 0.03 0.03 0.02 0.02 0.03 0.03 0.04
0.00 0.00 0.00 0.00 0.00 0.00 0.00 0.01 0.01 0.01 0.01 0.00 0.00 0.00 0.00 0.00 0.00 0.00 0.01 0.01 0.01 0.00 0.00 0.00 0.00 0.00 0.00 0.00 0.00 0.00 0.00 0.00 0.00 0.01 0.01 0.02 0.03 0.04 0.03 0.03 0.03 0.03 0.03 0.03
0.00 0.00 0.00 0.00 0.00 0.00 0.00 0.00 0.01 0.01 0.01 0.01 0.01 0.01 0.01 0.00 0.00 0.00 0.01 0.01 0.01 0.00 0.00 0.00 0.00 0.00 0.00 0.00 0.00 0.00 0.00 0.00 0.00 0.00 0.00 0.01 0.03 0.04 0.04 0.04 0.04 0.04 0.03 0.03
0.00 0.00 0.00 0.00 0.00 0.00 0.00 0.00 0.00 0.01 0.01 0.01 0.01 0.01 0.01 0.00 0.00 0.01 0.01 0.01 0.00 0.00 0.00 0.00 0.00 0.00 0.00 0.00 0.01 0.00 0.00 0.00 0.00 0.00 0.01 0.01 0.02 0.03 0.05 0.05 0.04 0.04 0.04 0.03
0.00 0.00 0.00 0.00 0.00 0.00 0.00 0.00 0.00 0.00 0.01 0.01 0.01 0.01 0.00 0.00 0.01 0.01 0.01 0.01 0.00 0.00 0.00 0.00 0.00 0.00 0.00 0.01 0.01 0.01 0.00 0.00 0.00 0.01 0.01 0.01 0.02 0.04 0.05 0.06 0.05 0.04 0.04 0.03
0.00 0.00 0.00 0.00 0.00 0.00 0.00 0.00 0.00 0.00 0.01 0.02 0.02 0.01 0.00 0.00 0.00 0.01 0.01 0.01 0.00 0.00 0.00 0.00 0.00 0.01 0.00 0.01 0.01 0.01 0.01 0.01 0.01 0.01 0.02 0.02 0.04 0.05 0.06 0.06 0.06 0.05 0.04 0.03
0.00 0.00 0.00 0.00 0.00 0.00 0.01 0.00 0.00 0.00 0.01 0.02 0.02 0.01 0.01 0.01 0.00 0.00 0.00 0.01 0.00 0.00 0.00 0.00 0.00 0.01 0.01 0.01 0.01 0.01 0.01 0.02 0.02 0.02 0.02 0.03 0.04 0.05 0.05 0.05 0.03 0.04 0.04 0.03
0.00 0.00 0.00 0.00 0.00 0.00 0.01 0.00 0.00 0.00 0.01 0.02 0.02 0.02 0.02 0.01 0.01 0.01 0.00 0.00 0.00 0.00 0.00 0.00 0.00 0.01 0.01 0.01 0.02 0.02 0.02 0.02 0.02 0.02 0.02 0.03 0.04 0.04 0.04 0.04 0.04 0.03 0.03 0.03
0.00 0.00 0.00 0.00 0.00 0.00 0.01 0.01 0.00 0.00 0.00 0.01 0.02 0.02 0.02 0.02 0.01 0.01 0.01 0.00 0.00 0.00 0.00 0.00 0.00 0.00 0.01 0.01 0.01 0.01 0.01 0.02 0.02 0.02 0.02 0.03 0.04 0.05 0.05 0.04 0.04 0.04 0.03 0.03
0.00 0.00 0.00 0.00 0.00 0.00 0.01 0.01 0.01 0.01 0.01 0.01 0.01 0.02 0.01 0.01 0.01 0.01 0.01 0.00 0.00 0.00 0.00 0.00 0.00 0.00 0.01 0.01 0.01 0.01 0.01 0.01 0.01 0.02 0.02 0.03 0.04 0.05 0.04 0.03 0.04 0.04 0.03 0.02
0.00 0.00 0.00 0.00 0.00 0.00 0.01 0.00 0.01 0.01 0.00 0.01 0.01 0.02 0.02 0.01 0.01 0.01 0.01 0.00 0.00 0.00 0.00 0.00 0.00 0.01 0.01 0.00 0.00 0.01 0.00 0.01 0.01 0.01 0.01 0.02 0.03 0.04 0.03 0.03 0.04 0.04 0.03 0.02
0.00 0.00 0.00 0.00 0.00 0.01 0.01 0.01 0.01 0.01 0.01 0.01 0.01 0.02 0.03 0.02 0.01 0.01 0.01 0.01 0.00 0.00 0.00 0.00 0.00 0.00 0.00 0.00 0.00 0.00 0.00 0.00 0.01 0.01 0.01 0.01 0.02 0.03 0.02 0.02 0.03 0.04 0.04 0.03
0.00 0.00 0.00 0.00 0.00 0.00 0.01 0.01 0.01 0.01 0.01 0.01 0.02 0.02 0.02 0.03 0.03 0.02 0.01 0.01 0.00 0.00 0.00 0.00 0.00 0.00 0.00 0.00 0.00 0.00 0.00 0.00 0.01 0.01 0.01 0.01 0.02 0.02 0.02 0.02 0.02 0.02 0.02 0.02
0.00 0.00 0.00 0.00 0.00 0.01 0.00 0.00 0.00 0.00 0.00 0.00 0.00 0.01 0.02 0.03 0.03 0.04 0.03 0.02 0.01 0.01 0.01 0.00 0.00 0.00 0.00 0.00 0.01 0.01 0.01 0.01 0.01 0.01 0.02 0.02 0.02 0.02 0.02 0.02 0.01 0.01 0.01 0.01
MSLP
1015.11 1014.44 1013.95 1013.66 1013.54 1013.54 1013.56 1013.51 1013.30 1012.88 1012.22 1011.35 1010.32 1009.24 1008.21 1007.34 1006.72 1006.40 1006.41 1006.73 1007.31 1008.07 1008.95 1009.88 1010.80 1011.68 1012.53 1013.33 1014.11 1014.87 1015.64 1016.42 1017.18 1017.92 1018.63 1019.27 1019.84 1020.34 1020.77 1021.16 1021.53 1021.89 1022.28 1022.69
1015.99 1015.39 1014.91 1014.59 1014.40 1014.32 1014.26 1014.15 1013.91 1013.51 1012.91 1012.12 1011.19 1010.19 1009.22 1008.37 1007.70 1007.28 1007.13 1007.25 1007.61 1008.16 1008.85 1009.61 1010.41 1011.21 1012.01 1012.80 1013.58 1014.36 1015.15 1015.93 1016.71 1017.47 1018.19 1018.85 1019.45 1019.98 1020.45 1020.87 1021.27 1021.65 1022.05 1022.47
1016.79 1016.24 1015.78 1015.43 1015.19 1015.03 1014.90 1014.74 1014.50 1014.12 1013.59 1012.91 1012.10 1011.22 1010.34 1009.52 1008.84 1008.34 1008.06 1008.00 1008.15 1008.47 1008.94 1009.51 1010.16 1010.84 1011.56 1012.29 1013.04 1013.81 1014.60 1015.39 1016.18 1016.95 1017.69 1018.38 1019.01 1019.58 1020.09 1020.55 1020.98 1021.40 1021.82 1022.25
1017.49 1016.97 1016.51 1016.12 1015.83 1015.60 1015.41 1015.21 1014.97 1014.63 1014.19 1013.63 1012.95 1012.21 1011.44 1010.70 1010.04 1009.50 1009.11 1008.90 1008.86 1008.97 1009.23 1009.59 1010.06 1010.59 1011.19 1011.84 1012.53 1013.26 1014.02 1014.80 1015.59 1016.37 1017.13 1017.85 1018.52 1019.14 1019.70 1020.21 1020.68 1021.13 1021.57 1022.01
1018.06 1017.54 1017.06 1016.64 1016.29 1016.00 1015.76 1015.53 1015.28 1014.99 1014.63 1014.19 1013.66 1013.06 1012.43 1011.79 1011.18 1010.64 1010.20 1009.87 1009.67 1009.60 1009.65 1009.82 1010.09 1010.46 1010.92 1011.45 1012.06 1012.72 1013.44 1014.19 1014.97 1015.76 1016.53 1017.28 1017.99 1018.66 1019.27 1019.83 1020.35 1020.83 1021.29 1021.74
1018.49 1017.96 1017.45 1016.99 1016.58 1016.23 1015.94 1015.69 1015.45 1015.20 1014.91 1014.58 1014.19 1013.74 1013.24 1012.72 1012.20 1011.69 1011.23 1010.83 1010.51 1010.29 1010.18 1010.16 1010.26 1010.46 1010.76 1011.17 1011.66 1012.24 1012.89 1013.60 1014.35 1015.13 1015.91 1016.69 1017.43 1018.14 1018.80 1019.41 1019.97 1020.49 1020.96 1021.42
1018.80 1018.24 1017.69 1017.19 1016.74 1016.34 1016.01 1015.73 1015.49 1015.27 1015.05 1014.81 1014.54 1014.23 1013.87 1013.47 1013.05 1012.60 1012.15 1011.73 1011.35 1011.02 1010.76 1010.60 1010.53 1010.57 1010.72 1010.99 1011.36 1011.83 1012.40 1013.05 1013.75 1014.51 1015.29 1016.07 1016.84 1017.58 1018.28 1018.93 1019.53 1020.07 1020.57 1021.03
1019.01 1018.41 1017.84 1017.30 1016.81 1016.39 1016.03 1015.72 1015.48 1015.28 1015.10 1014.94 1014.76 1014.57 1014.33 1014.05 1013.72 1013.35 1012.95 1012.54 1012.12 1011.73 1011.38 1011.09 1010.89 1010.79 1010.79 1010.92 1011.17 1011.53 1012.00 1012.56 1013.21 1013.91 1014.67 1015.44 1016.22 1016.97 1017.70 1018.37 1019.00 1019.57 1020.09 1020.57
1019.12 1018.51 1017.92 1017.37 1016.87 1016.43 1016.05 1015.74 1015.48 1015.29 1015.14 1015.02 1014.91 1014.80 1014.66 1014.48 1014.25 1013.96 1013.63 1013.24 1012.83 1012.40 1011.99 1011.63 1011.32 1011.10 1010.98 1010.97 1011.09 1011.33 1011.69 1012.16 1012.72 1013.36 1014.06 1014.80 1015.56 1016.31 1017.04 1017.73 1018.38 1018.97 1019.52 1020.03
1019.16 1018.55 1017.98 1017.44 1016.95 1016.51 1016.13 1015.81 1015.55 1015.36 1015.22 1015.12 1015.05 1014.99 1014.91 1014.81 1014.66 1014.45 1014.18 1013.84 1013.45 1013.03 1012.60 1012.18 1011.80 1011.49 1011.26 1011.14 1011.13 1011.25 1011.50 1011.85 1012.31 1012.87 1013.49 1014.17 1014.88 1015.60 1016.31 1016.99 1017.65 1018.27 1018.84 1019.38
1019.13 1018.54 1018.00 1017.50 1017.05 1016.63 1016.27 1015.96 1015.70 1015.50 1015.35 1015.26 1015.20 1015.16 1015.13 1015.07 1014.98 1014.84 1014.63 1014.35 1014.00 1013.61 1013.18 1012.74 1012.32 1011.94 1011.63 1011.41 1011.30 1011.30 1011.42 1011.66 1012.01 1012.45 1012.97 1013.56 1014.20 1014.86 1015.52 1016.19 1016.84 1017.46 1018.06 1018.64
1018.99 1018.46 1017.97 1017.54 1017.14 1016.78 1016.45 1016.16 1015.91 1015.71 1015.55 1015.44 1015.37 1015.34 1015.32 1015.29 1015.24 1015.15 1014.99 1014.77 1014.48 1014.12 1013.72 1013.29 1012.85 1012.44 1012.08 1011.78 1011.58 1011.48 1011.48 1011.60 1011.82 1012.14 1012.55 1013.03 1013.56 1014.13 1014.73 1015.35 1015.97 1016.59 1017.21 1017.82
1018.73 1018.27 1017.86 1017.50 1017.18 1016.89 1016.62 1016.36 1016.13 1015.93 1015.76 1015.63 1015.55 1015.50 1015.47 1015.46 1015.43 1015.38 1015.28 1015.11 1014.88 1014.58 1014.22 1013.82 1013.40 1012.98 1012.59 1012.25 1011.98 1011.79 1011.69 1011.70 1011.79 1011.98 1012.25 1012.60 1013.02 1013.48 1013.99 1014.54 1015.11 1015.71 1016.32 1016.95
1018.33 1017.94 1017.62 1017.35 1017.12 1016.91 1016.71 1016.50 1016.30 1016.10 1015.93 1015.79 1015.69 1015.62 1015.59 1015.57 1015.56 1015.54 1015.48 1015.37 1015.20 1014.96 1014.67 1014.32 1013.94 1013.55 1013.16 1012.80 1012.49 1012.24 1012.06 1011.96 1011.94 1012.00 1012.14 1012.35 1012.63 1012.97 1013.38 1013.83 1014.33 1014.88 1015.46 1016.08
1017.79 1017.48 1017.26 1017.08 1016.95 1016.82 1016.68 1016.53 1016.36 1016.19 1016.02 1015.87 1015.75 1015.67 1015.62 1015.60 1015.60 1015.60 1015.58 1015.53 1015.42 1015.26 1015.05 1014.77 1014.46 1014.12 1013.77 1013.42 1013.10 1012.81 1012.58 1012.40 1012.28 1012.22 1012.24 1012.32 1012.46 1012.67 1012.95 1013.30 1013.71 1014.17 1014.70 1015.28
1017.15 1016.92 1016.78 1016.70 1016.65 1016.60 1016.53 1016.43 1016.31 1016.16 1016.00 1015.85 1015.72 1015.62 1015.56 1015.54 1015.54 1015.56 1015.58 1015.58 1015.55 1015.47 1015.34 1015.15 1014.93 1014.66 1014.37 1014.07 1013.77 1013.48 1013.22 1012.99 1012.80 1012.66 1012.57 1012.53 1012.55 1012.63 1012.78 1013.01 1013.31 1013.68 1014.12 1014.63
1016.47 1016.32 1016.26 1016.25 1016.28 1016.30 1016.29 1016.24 1016.15 1016.03 1015.88 1015.72 1015.58 1015.47 1015.40 1015.37 1015.38 1015.42 1015.47 1015.52 1015.56 1015.56 1015.53 1015.44 1015.32 1015.15 1014.95 1014.72 1014.47 1014.22 1013.96 1013.72 1013.49 1013.28 1013.11 1012.98 1012.89 1012.86 1012.90 1013.00 1013.19 1013.45 1013.79 1014.20
1015.84 1015.75 1015.76 1015.82 1015.90 1015.97 1016.01 1016.00 1015.93 1015.82 1015.68 1015.52 1015.37 1015.25 1015.16 1015.12 1015.13 1015.19 1015.27 1015.36 1015.46 1015.55 1015.61 1015.63 1015.62 1015.56 1015.46 1015.33 1015.16 1014.96 1014.74 1014.51 1014.28 1014.04 1013.83 1013.63 1013.46 1013.35 1013.28 1013.28 1013.36 1013.51 1013.73 1014.03
1015.34 1015.31 1015.36 1015.47 1015.59 1015.69 1015.75 1015.75 1015.69 1015.59 1015.44 1015.27 1015.11 1014.97 1014.87 1014.82 1014.83 1014.89 1014.99 1015.13 1015.28 1015.44 1015.59 1015.72 1015.81 1015.87 1015.88 1015.85 1015.77 1015.65 1015.50 1015.31 1015.10 1014.87 1014.64 1014.42 1014.21 1014.03 1013.90 1013.83 1013.81 1013.86 1013.97 1014.15
1015.03 1015.04 1015.12 1015.24 1015.38 1015.48 1015.55 1015.55 1015.49 1015.38 1015.22 1015.04 1014.86 1014.70 1014.59 1014.52 1014.52 1014.58 1014.69 1014.86 1015.06 1015.28 1015.51 1015.73 1015.92 1016.08 1016.20 1016.27 1016.29 1016.26 1016.18 1016.05 1015.89 1015.69 1015.48 1015.26 1015.04 1014.84 1014.67 1014.55 1014.47 1014.44 1014.46 1014.54
1014.90 1014.94 1015.03 1015.16 1015.29 1015.38 1015.43 1015.43 1015.35 1015.23 1015.05 1014.86 1014.67 1014.49 1014.35 1014.28 1014.26 1014.32 1014.44 1014.63 1014.86 1015.12 1015.41 1015.70 1015.97 1016.22 1016.43 1016.59 1016.70 1016.75 1016.75 1016.69 1016.58 1016.43 1016.26 1016.07 1015.87 1015.68 1015.51 1015.36 1015.25 1015.17 1015.13 1015.12
1014.93 1014.97 1015.07 1015.19 1015.30 1015.38 1015.41 1015.38 1015.30 1015.15 1014.98 1014.77 1014.57 1014.38 1014.24 1014.15 1014.12 1014.17 1014.29 1014.49 1014.73 1015.03 1015.35 1015.68 1016.02 1016.33 1016.60 1016.83 1017.01 1017.13 1017.19 1017.19 1017.15 1017.05 1016.93 1016.78 1016.62 1016.46 1016.31 1016.17 1016.05 1015.96 1015.88 1015.81
1015.03 1015.08 1015.17 1015.27 1015.36 1015.42 1015.44 1015.40 1015.31 1015.18 1015.00 1014.80 1014.60 1014.42 1014.28 1014.19 1014.16 1014.20 1014.31 1014.50 1014.75 1015.05 1015.39 1015.75 1016.11 1016.45 1016.77 1017.04 1017.26 1017.43 1017.53 1017.58 1017.58 1017.54 1017.46 1017.36 1017.24 1017.13 1017.01 1016.90 1016.80 1016.71 1016.61 1016.52
1015.12 1015.17 1015.26 1015.35 1015.43 1015.49 1015.51 1015.48 1015.41 1015.29 1015.14 1014.97 1014.80 1014.64 1014.51 1014.42 1014.39 1014.43 1014.54 1014.72 1014.96 1015.25 1015.58 1015.93 1016.28 1016.63 1016.96 1017.24 1017.48 1017.67 1017.80 1017.87 1017.91 1017.90 1017.86 1017.79 1017.72 1017.64 1017.57 1017.49 1017.42 1017.34 1017.25 1017.15
1015.14 1015.20 1015.29 1015.38 1015.48 1015.55 1015.59 1015.60 1015.56 1015.50 1015.39 1015.27 1015.15 1015.03 1014.93 1014.86 1014.85 1014.88 1014.98 1015.14 1015.35 1015.62 1015.92 1016.24 1016.57 1016.90 1017.21 1017.48 1017.71 1017.89 1018.02 1018.11 1018.15 1018.16 1018.14 1018.10 1018.06 1018.01 1017.97 1017.92 1017.87 1017.81 1017.74 1017.64
1015.04 1015.13 1015.24 1015.36 1015.49 1015.60 1015.69 1015.75 1015.78 1015.78 1015.75 1015.70 1015.64 1015.57 1015.52 1015.48 1015.48 1015.52 1015.60 1015.74 1015.92 1016.14 1016.40 1016.68 1016.97 1017.25 1017.52 1017.76 1017.96 1018.12 1018.24 1018.31 1018.34 1018.35 1018.33 1018.30 1018.27 1018.23 1018.20 1018.17 1018.14 1018.10 1018.03 1017.94
1014.86 1014.99 1015.14 1015.31 1015.48 1015.66 1015.81 1015.95 1016.07 1016.15 1016.20 1016.23 1016.24 1016.24 1016.23 1016.23 1016.24 1016.27 1016.34 1016.45 1016.59 1016.77 1016.97 1017.19 1017.43 1017.66 1017.88 1018.07 1018.23 1018.36 1018.44 1018.49 1018.50 1018.49 1018.46 1018.42 1018.37 1018.33 1018.29 1018.26 1018.23 1018.18 1018.12 1018.04
Thickness
5650 5655 5655 5655 5656 5655 5649 5645 5639 5645 5647 5659 5663 5665 5666 5666 5665 5663 5661 5659 5657 5655 5652 5650 5648 5647 5645 5643 5642 5640 5637 5635 5634 5633 5632 5631 5630 5629 5628 5628 5627 5625 5624 5623
5644 5649 5648 5648 5652 5652 5650 5648 5644 5645 5648 5662 5663 5662 5661 5660 5659 5658 5657 5656 5654 5651 5648 5646 5644 5642 5640 5637 5636 5634 5631 5630 5628 5627 5625 5625 5624 5623 5622 5621 5620 5619 5618 5618
5628 5634 5640 5639 5650 5650 5650 5650 5647 5643 5651 5657 5656 5656 5657 5656 5655 5654 5654 5652 5650 5647 5645 5643 5641 5639 5636 5633 5631 5628 5626 5624 5622 5621 5619 5618 5618 5617 5616 5614 5613 5612 5612 5612
5618 5626 5625 5643 5654 5653 5650 5649 5648 5649 5650 5652 5652 5653 5654 5654 5651 5650 5649 5647 5645 5643 5640 5639 5637 5634 5632 5628 5625 5623 5620 5618 5617 5615 5613 5612 5611 5610 5609 5608 5607 5606 5606 5606
5607 5612 5620 5637 5646 5646 5642 5642 5647 5645 5646 5646 5646 5645 5644 5648 5648 5647 5645 5644 5641 5639 5637 5634 5632 5629 5626 5622 5620 5617 5615 5613 5612 5610 5608 5606 5605 5604 5603 5601 5601 5600 5599 5599
5601 5608 5612 5631 5643 5646 5642 5633 5643 5641 5640 5640 5638 5628 5634 5642 5642 5642 5640 5638 5635 5633 5630 5627 5626 5623 5619 5616 5613 5612 5610 5608 5607 5605 5602 5601 5600 5598 5597 5596 5595 5594 5593 5593
5597 5600 5611 5629 5635 5638 5623 5627 5638 5637 5636 5633 5629 5629 5633 5635 5635 5635 5634 5632 5629 5626 5623 5621 5619 5616 5613 5610 5608 5607 5605 5602 5600 5599 5597 5595 5593 5592 5591 5590 5588 5587 5587 5587
5589 5593 5607 5627 5626 5623 5624 5631 5631 5631 5630 5628 5626 5627 5628 5628 5627 5627 5625 5624 5621 5618 5616 5614 5612 5609 5606 5604 5604 5601 5599 5596 5594 5592 5591 5589 5587 5585 5583 5582 5580 5580 5579 5579
5599 5607 5617 5620 5621 5624 5624 5622 5624 5624 5625 5623 5621 5620 5621 5620 5619 5618 5617 5615 5613 5611 5608 5607 5605 5603 5600 5599 5597 5594 5591 5589 5587 5586 5584 5583 5581 5578 5576 5574 5573 5572 5572 5572
5595 5605 5611 5613 5616 5617 5618 5618 5619 5619 5619 5617 5615 5614 5613 5611 5610 5609 5609 5607 5605 5603 5600 5599 5598 5597 5595 5593 5590 5587 5584 5581 5580 5578 5577 5575 5574 5572 5570 5568 5567 5567 5566 5565
5589 5599 5603 5609 5609 5611 5612 5612 5612 5612 5612 5611 5610 5608 5606 5604 5603 5601 5601 5599 5597 5595 5594 5593 5592 5590 5588 5586 5584 5580 5576 5574 5572 5571 5569 5567 5566 5565 5565 5565 5564 5563 5562 5561
5589 5597 5594 5599 5604 5605 5604 5604 5604 5604 5604 5604 5603 5601 5599 5597 5595 5594 5593 5591 5589 5587 5586 5585 5584 5582 5581 5579 5577 5573 5569 5566 5564 5563 5561 5560 5559 5558 5559 5559 5559 5558 5558 5556
5591 5594 5592 5595 5597 5598 5597 5598 5598 5597 5596 5595 5595 5594 5593 5590 5588 5586 5585 5584 5582 5581 5579 5578 5576 5574 5573 5571 5569 5566 5563 5559 5557 5555 5554 5552 5551 5550 5549 5550 5551 5551 5550 5549
5585 5585 5585 5588 5588 5590 5590 5591 5590 5589 5589 5588 5587 5586 5584 5582 5581 5579 5578 5577 5575 5574 5572 5571 5569 5567 5565 5563 5561 5558 5555 5554 5551 5549 5547 5545 5544 5543 5542 5541 5541 5540 5541 5541
5577 5577 5578 5580 5580 5580 5580 5580 5579 5579 5579 5579 5578 5577 5576 5574 5572 5571 5570 5569 5567 5565 5564 5563 5561 5559 5558 5556 5553 5551 5548 5546 5543 5541 5540 5538 5537 5535 5534 5534 5533 5532 5532 5532
5568 5569 5570 5570 5571 5571 5571 5571 5570 5570 5570 5570 5569 5568 5568 5566 5564 5563 5561 5560 5558 5557 5556 5555 5554 5553 5551 5549 5546 5543 5541 5541 5538 5535 5532 5530 5529 5527 5526 5525 5525 5524 5524 5524
5557 5558 5560 5560 5561 5562 5563 5563 5563 5563 5562 5561 5560 5559 5558 5556 5554 5553 5552 5551 5550 5549 5549 5548 5547 5546 5544 5542 5539 5537 5534 5533 5532 5528 5525 5523 5521 5520 5519 5518 5517 5517 5517 5517
5550 5552 5552 5552 5552 5554 5555 5555 5555 5554 5554 5554 5553 5550 5549 5547 5546 5545 5543 5542 5540 5539 5539 5540 5539 5538 5536 5534 5532 5529 5527 5524 5522 5519 5517 5515 5514 5513 5512 5511 5511 5510 5509 5509
5542 5543 5544 5545 5546 5547 5547 5546 5546 5546 5547 5545 5543 5542 5541 5540 5538 5536 5534 5531 5530 5529 5530 5531 5532 5530 5528 5526 5525 5522 5519 5517 5514 5512 5510 5509 5507 5506 5505 5504 5504 5503 5502 5501
5533 5535 5536 5537 5538 5538 5538 5538 5537 5537 5538 5537 5535 5533 5532 5531 5529 5526 5524 5522 5522 5523 5523 5522 5521 5520 5519 5518 5517 5514 5512 5510 5507 5505 5503 5501 5500 5499 5498 5498 5497 5497 5496 5495
5523 5525 5527 5528 5529 5530 5529 5529 5528 5528 5528 5528 5526 5525 5524 5522 5520 5518 5515 5514 5515 5515 5514 5515 5513 5511 5510 5509 5509 5506 5504 5502 5501 5498 5497 5495 5494 5492 5491 5491 5490 5489 5488 5488
5513 5514 5516 5517 5518 5519 5519 5518 5518 5519 5519 5518 5517 5516 5514 5512 5511 5509 5508 5507 5507 5508 5506 5505 5504 5504 5503 5503 5500 5498 5497 5495 5494 5492 5490 5488 5487 5486 5485 5484 5483 5482 5481 5480
5502 5503 5505 5506 5507 5507 5508 5508 5508 5508 5508 5508 5507 5506 5505 5504 5502 5500 5500 5500 5500 5500 5499 5498 5498 5499 5497 5494 5492 5490 5489 5488 5486 5484 5482 5481 5480 5479 5478 5477 5476 5475 5474 5473
5492 5493 5494 5495 5495 5496 5496 5497 5497 5497 5497 5497 5497 5496 5495 5494 5493 5493 5493 5494 5494 5493 5491 5491 5492 5491 5490 5486 5484 5482 5481 5479 5478 5476 5475 5474 5472 5471 5470 5469 5468 5468 5467 5466
5482 5482 5483 5483 5483 5484 5484 5485 5485 5485 5485 5486 5486 5486 5485 5485 5485 5485 5485 5485 5485 5485 5483 5484 5484 5483 5480 5477 5475 5474 5473 5471 5470 5469 5467 5466 5465 5464 5463 5462 5461 5460 5460 5459
5471 5472 5473 5473 5473 5473 5473 5474 5474 5474 5474 5474 5475 5476 5476 5476 5476 5475 5475 5475 5475 5476 5474 5473 5472 5472 5470 5468 5467 5466 5465 5464 5463 5462 5461 5460 5458 5457 5456 5455 5454 5453 5452 5452
5462 5462 5462 5462 5463 5463 5464 5464 5464 5464 5465 5464 5465 5466 5466 5466 5466 5466 5466 5465 5465 5464 5464 5463 5462 5462 5461 5460 5459 5458 5457 5457 5456 5455 5454 5453 5451 5450 5449 5448 5447 5446 5445 5444